Location: Lachepaillet
(43.4918°N, 1.4874°W)
Time: 02:21:33
(UTC+00:00)

Terra - Pass Details

Date: 15 May 2026
Orbit: 689 x 690 km, 97.9° (Epoch: 8 June)

Event Time Altitude Azimuth Distance (km) Brightness Sun altitude
Exits shadow 21:24:23 - 206° (SSW) 2,570 4.5 -17.7°
Reaches altitude 10° 21:25:43 10° 215° (SW) 2,136 4.1 -17.9°
Maximum altitude 21:29:23 23° 267° (W) 1,471 3.8 -18.3°
Drops below altitude 10° 21:33:04 10° 319° (NW) 2,150 5.6 -18.7°
Sets 21:35:46 0° 334° (NNW) 3,072 6.7 -19.0°
